[TLELIST] Archives

 

[TLELIST] Current TLEs

May 9th 2026 PDT

0 HST 1 20580U 90037B 26128.82445620 .00006178 00000-0 19696-3 0 9990 2 20580 28.4761 349.5058 0002174 66.2001 293.8822 15.30329702782539 0 ISS (ZARYA) 1 25544U 98067A 26128.97347854 .00006654 00000-0 12812-3 0 9994 2 25544 51.6310 134.2107 0007399 38.6382 321.5134 15.49152986565672 0 CXO 1 25867U 99040B 26129.70737146 .00000792 00000-0 00000-0 0 9993 2 25867 55.5364 117.7999 7900392 310.4423 0.0547 0.37799268 17171 ...Continue Reading

[TLELIST] [TLELIST] Current TLEs

May 9th 2026 PDT

0 HST 1 20580U 90037B 26128.82445620 .00006178 00000-0 19696-3 0 9990 2 20580 28.4761 349.5058 0002174 66.2001 293.8822 15.30329702782539 0 ISS (ZARYA) 1 25544U 98067A 26128.97347854 .00006654 00000-0 12812-3 0 9994 2 25544 51.6310 134.2107 0007399 38.6382 321.5134 15.49152986565672 0 CXO 1 25867U 99040B 26129.70737146 .00000792 00000-0 00000-0 0 9993 2 25867 55.5364 117.7999 7900392 310.4423 0.0547 0.37799268 17171 ...Continue Reading

[TLELIST] Current TLEs

May 8th 2026 PDT

0 HST 1 20580U 90037B 26127.97667409 .00005999 00000-0 19110-3 0 9997 2 20580 28.4762 355.2958 0002158 58.4789 301.6018 15.30319964782401 0 ISS (ZARYA) 1 25544U 98067A 26128.19937109 .00004920 00000-0 96926-4 0 9999 2 25544 51.6308 138.0417 0007476 35.9089 324.2400 15.49139257565554 0 CXO 1 25867U 99040B 26129.70737146 .00000792 00000-0 00000-0 0 9993 2 25867 55.5364 117.7999 7900392 310.4423 0.0547 0.37799268 17171 ...Continue Reading

[TLELIST] Current TLEs

May 7th 2026 PDT

0 HST 1 20580U 90037B 26126.99845732 .00006020 00000-0 19186-3 0 9994 2 20580 28.4762 1.9769 0002131 49.8237 310.2545 15.30309267782258 0 ISS (ZARYA) 1 25544U 98067A 26127.16721672 .00005508 00000-0 10757-3 0 9991 2 25544 51.6305 143.1491 0007435 32.2307 327.9134 15.49128668565398 0 CXO 1 25867U 99040B 26129.70737146 .00000792 00000-0 00000-0 0 9993 2 25867 55.5364 117.7999 7900392 310.4423 0.0547 0.37799268 17171 ...Continue Reading

[TLELIST] Current TLEs

May 1st 2026 PDT

0 HST 1 20580U 90037B 26121.12897901 .00008025 00000-0 25885-3 0 9999 2 20580 28.4760 42.0596 0001816 349.3282 10.7275 15.30223611781357 0 ISS (ZARYA) 1 25544U 98067A 26121.23215145 .00007946 00000-0 15194-3 0 9994 2 25544 51.6312 172.5179 0007184 10.5209 349.5928 15.49045666564471 0 CXO 1 25867U 99040B 26121.77434247 .00000574 00000-0 00000+0 0 9995 2 25867 55.4326 117.9802 7910128 310.5568 359.9255 0.37807064 17145 ...Continue Reading

[TLELIST] Current TLEs

April 30th 2026 PDT

0 HST 1 20580U 90037B 26120.15069886 .00007038 00000-0 22624-3 0 9995 2 20580 28.4757 48.7403 0001769 337.5229 22.5290 15.30208308781208 0 ISS (ZARYA) 1 25544U 98067A 26120.19993199 .00006779 00000-0 13091-3 0 9997 2 25544 51.6316 177.6251 0007128 6.6336 353.4746 15.49030629564315 0 CXO 1 25867U 99040B 26121.77434247 .00000574 00000-0 00000+0 0 9995 2 25867 55.4326 117.9802 7910128 310.5568 359.9255 0.37807064 17145 ...Continue Reading

[TLELIST] Current TLEs

April 30th 2026 PDT

0 HST 1 20580U 90037B 26120.15069886 .00007038 00000-0 22624-3 0 9995 2 20580 28.4757 48.7403 0001769 337.5229 22.5290 15.30208308781208 0 ISS (ZARYA) 1 25544U 98067A 26120.19993199 .00006779 00000-0 13091-3 0 9997 2 25544 51.6316 177.6251 0007128 6.6336 353.4746 15.49030629564315 0 CXO 1 25867U 99040B 26121.77434247 .00000574 00000-0 00000+0 0 9995 2 25867 55.4326 117.9802 7910128 310.5568 359.9255 0.37807064 17145 ...Continue Reading

[TLELIST] Current TLEs

April 29th 2026 PDT

0 HST 1 20580U 90037B 26119.10719019 .00006745 00000-0 21661-3 0 9992 2 20580 28.4752 55.8662 0001712 325.4254 34.6231 15.30194557781042 0 ISS (ZARYA) 1 25544U 98067A 26119.16770407 .00006851 00000-0 13230-3 0 9993 2 25544 51.6320 182.7324 0007096 3.0267 357.0763 15.49015163564153 0 CXO 1 25867U 99040B 26121.77434247 .00000574 00000-0 00000+0 0 9995 2 25867 55.4326 117.9802 7910128 310.5568 359.9255 0.37807064 17145 ...Continue Reading

[TLELIST] Current TLEs

April 29th 2026 PDT

0 HST 1 20580U 90037B 26119.10719019 .00006745 00000-0 21661-3 0 9992 2 20580 28.4752 55.8662 0001712 325.4254 34.6231 15.30194557781042 0 ISS (ZARYA) 1 25544U 98067A 26119.16770407 .00006851 00000-0 13230-3 0 9993 2 25544 51.6320 182.7324 0007096 3.0267 357.0763 15.49015163564153 0 CXO 1 25867U 99040B 26121.77434247 .00000574 00000-0 00000+0 0 9995 2 25867 55.4326 117.9802 7910128 310.5568 359.9255 0.37807064 17145 ...Continue Reading

[TLELIST] Current TLEs

April 28th 2026 PDT

0 HST 1 20580U 90037B 26118.19411272 .00006988 00000-0 22478-3 0 9996 2 20580 28.4748 62.1018 0001678 314.3125 45.7333 15.30182777780909 0 ISS (ZARYA) 1 25544U 98067A 26118.19998100 .00008365 00000-0 15976-3 0 9998 2 25544 51.6320 187.5201 0007064 359.4554 0.6426 15.49001185564002 0 CXO 1 25867U 99040B 26119.13194012 .00000562 00000-0 00000-0 0 9993 2 25867 55.4178 118.0274 7914890 310.5929 0.1646 0.37810555 17133 ...Continue Reading
  • This mailing list is a public mailing list - anyone may join or leave, at any time.
  • This mailing list is announce-only.

International Space Station (ISS) / Hubble Space Telescope (HST) / Chandra X-Ray Observatory Orbital Data via EMAIL

Privacy Policy:

Private list